[[{"header":{"parameterUnit":"m.s-1","parameterCategory":2,"la1":30.2992,"la2":30.254,"lo1":-89.0895,"lo2":-89.0443,"dy":0.0025,"dx":0.0025,"nx":19,"ny":19,"refTime":"2026-03-08T21:00:00:Z","depth":"0","parameterNumber":2,"parameterNumberName":"U-component_of_CURRENTS"},"data":[0,0,0,0.2043,0.2045,0.2121,0.2121,0.2103,0.2103,0,0,0,0,0,0,0,0,0,0,0,0.199,0.1991,0.2043,0.2046,0.2121,0.2121,0.2103,0.2103,0,0,0,0,0,0,0,0,0,0,0,0.199,0.1991,0.1991,0.2046,0.2121,0.2121,0.2103,0.2069,0,0,0,0,0,0,0,0,0,0,0.2007,0.1969,0.1991,0.1991,0.2047,0.2121,0.2121,0.2068,0.2071,0.2044,0,0.2058,0,0.2101,0.2101,0.2101,0,0,0,0.2021,0.1967,0.2012,0.1991,0.2048,0.2121,0.208,0.207,0.2073,0.2047,0.2058,0.2059,0.21,0.2101,0.2101,0.2082,0.2082,0,0,0.2017,0.1978,0.201,0.2014,0.2068,0.2078,0.2083,0.2073,0.2059,0.2058,0.206,0.21,0.2101,0.2101,0.2082,0.2082,0,0,0,0.2021,0.1974,0.2021,0.2012,0.2047,0.208,0.2086,0.2059,0.2081,0.206,0.21,0.2101,0.2101,0.2082,0.2082,0.2105,0,0,0,0.2018,0.198,0.2019,0.1993,0.2048,0.2068,0.2071,0.2081,0.2083,0.21,0.2101,0.21,0.2082,0.2082,0.2105,0.2087,0,0,0,0.1987,0.1977,0.1992,0.1991,0.2042,0.207,0.209,0.2083,0.2108,0.2101,0.21,0.2083,0.2082,0.2104,0.2087,0.2104,0,0,0,0.1936,0.194,0.199,0.1993,0.2042,0.2067,0.2091,0.2095,0.2087,0.2101,0.2082,0.2082,0.2104,0.2087,0.2104,0.2084,0.2084,0,0,0.1915,0.1936,0.1938,0.1987,0.2014,0.2055,0.207,0.2076,0.2077,0.2073,0.2074,0.2105,0.2087,0.2104,0.2079,0.2079,0,0,0,0.1915,0.1928,0.1935,0.1969,0.1998,0.2036,0.2064,0.2081,0.2098,0.2081,0.2097,0.2084,0.2095,0.2082,0.2082,0.2006,0.2082,0.2082,0.2082,0.1882,0.1909,0.1906,0.195,0.1965,0.2024,0.2043,0.2074,0.2082,0.2101,0.2098,0.2114,0.2101,0.2101,0.2023,0.2106,0.2106,0.2107,0.2107,0.1856,0.1851,0.1887,0.1894,0.1946,0.1969,0.2039,0.2073,0.2109,0.2113,0.2124,0.2099,0.2102,0.2019,0.2108,0.2108,0.2108,0.2107,0.2107,0.1814,0.1811,0.1822,0.1843,0.1882,0.1949,0.1996,0.206,0.2103,0.2117,0.2114,0.2113,0.2044,0.2138,0.2138,0.2138,0.2138,0.2138,0.2138,0.1756,0.1766,0.1764,0.1797,0.1818,0.1881,0.1975,0.2017,0.2083,0.2112,0.2113,0.203,0.2123,0.2127,0.2138,0.2138,0.2138,0.2138,0.2138,0.1713,0.1718,0.1707,0.1718,0.1761,0.1773,0.1887,0.1972,0.2032,0.2056,0.2014,0.2117,0.2104,0.2103,0.2105,0.2111,0.2111,0.2111,0.2111,0.1687,0.1689,0.1657,0.1651,0.1672,0.1719,0.1722,0.1816,0.1912,0.1926,0.196,0.1941,0.1946,0.1922,0.1925,0.1923,0.1882,0.1882,0.1881,0.168,0.1666,0.1628,0.1606,0.1616,0.1633,0.1595,0.161,0.1758,0.1864,0.1858,0.1867,0.1833,0.1846,0.1804,0.1815,0.181,0,0]},{"header":{"parameterUnit":"m.s-1","parameterCategory":2,"la1":30.2992,"la2":30.254,"lo1":-89.0895,"lo2":-89.0443,"dy":0.0025,"dx":0.0025,"nx":19,"ny":19,"refTime":"2026-03-08T21:00:00:Z","depth":"0","parameterNumber":3,"parameterNumberName":"V-component_of_CURRENTS"},"data":[0,0,0,0.0185,0.0184,0.0133,0.0133,0.0097,0.0097,0,0,0,0,0,0,0,0,0,0,0,0.0212,0.0212,0.0185,0.0184,0.0133,0.0133,0.0097,0.0097,0,0,0,0,0,0,0,0,0,0,0,0.0212,0.0212,0.0212,0.0184,0.0133,0.0133,0.0097,0.0129,0,0,0,0,0,0,0,0,0,0,0.0174,0.02,0.0212,0.0212,0.0184,0.0133,0.0133,0.013,0.0127,0.0128,0,0.0125,0,0.0106,0.0095,0.0095,0,0,0,0.0185,0.0203,0.0182,0.0212,0.0183,0.0134,0.0157,0.0128,0.0124,0.0124,0.0125,0.0123,0.0106,0.0095,0.0095,0.0102,0.0102,0,0,0.0188,0.0208,0.0184,0.018,0.0177,0.0158,0.0155,0.0125,0.013,0.0124,0.0121,0.0105,0.0095,0.0095,0.0102,0.0102,0,0,0,0.0195,0.021,0.019,0.0182,0.0168,0.0157,0.0153,0.0131,0.0122,0.0121,0.0105,0.0095,0.0094,0.0101,0.0102,0.0174,0,0,0,0.0197,0.0214,0.0191,0.0204,0.0169,0.0146,0.016,0.0125,0.012,0.0105,0.0095,0.0094,0.0101,0.0101,0.0172,0.0213,0,0,0,0.0213,0.0216,0.021,0.0205,0.018,0.0146,0.0135,0.0123,0.0111,0.0095,0.0094,0.0101,0.0101,0.0169,0.0209,0.0251,0,0,0,0.0235,0.0246,0.0211,0.0225,0.0181,0.0176,0.0135,0.0127,0.0118,0.0095,0.0101,0.0102,0.0168,0.0206,0.0248,0.0338,0.0359,0,0,0.0262,0.025,0.0259,0.0227,0.0235,0.0183,0.0202,0.0167,0.0128,0.0112,0.0112,0.0172,0.0208,0.0251,0.0376,0.0396,0,0,0,0.0277,0.0283,0.0281,0.0276,0.0257,0.0254,0.0208,0.0193,0.0174,0.0124,0.0165,0.0186,0.021,0.0258,0.0273,0.0258,0.0105,0.0105,0.0105,0.0324,0.0316,0.0338,0.0327,0.0326,0.03,0.0301,0.027,0.0222,0.0222,0.024,0.0315,0.0366,0.0379,0.0362,0.0227,0.0228,0.0228,0.0228,0.0375,0.0392,0.0387,0.0407,0.0399,0.0411,0.039,0.0362,0.0357,0.03,0.032,0.0325,0.0401,0.0376,0.0233,0.0232,0.0231,0.0231,0.023,0.0409,0.042,0.043,0.0464,0.0496,0.0489,0.0539,0.0495,0.0437,0.0451,0.0487,0.0486,0.0469,0.0456,0.0457,0.0457,0.0457,0.0458,0.0458,0.0443,0.0454,0.0498,0.053,0.0565,0.062,0.0623,0.0631,0.0622,0.0582,0.0582,0.0503,0.0385,0.0381,0.0464,0.0463,0.0462,0.0461,0.0461,0.0496,0.05,0.0566,0.0607,0.07,0.0803,0.0797,0.0849,0.0822,0.0844,0.0717,0.0648,0.0635,0.0622,0.0624,0.0764,0.0764,0.0764,0.0764,0.0533,0.0539,0.0637,0.0717,0.0817,0.0892,0.104,0.1062,0.097,0.0914,0.0831,0.0795,0.0783,0.0774,0.0757,0.0759,0.0931,0.0931,0.0931,0.058,0.0602,0.0683,0.0757,0.0873,0.1004,0.1167,0.1249,0.1085,0.093,0.0794,0.0787,0.072,0.0703,0.0671,0.0649,0.0645,0,0]}],[{"header":{"parameterUnit":"m.s-1","parameterCategory":2,"la1":30.2992,"la2":30.254,"lo1":-89.0895,"lo2":-89.0443,"dy":0.0025,"dx":0.0025,"nx":19,"ny":19,"refTime":"2026-03-08T21:00:00:Z","depth":"2","parameterNumber":2,"parameterNumberName":"U-component_of_CURRENTS"},"data":[0,0,0,0.1562,0.1563,0.1597,0.1597,0.1633,0.1633,0,0,0,0,0,0,0,0,0,0,0,0.1547,0.1547,0.1562,0.1563,0.1597,0.1597,0.1633,0.1633,0,0,0,0,0,0,0,0,0,0,0,0.1547,0.1547,0.1547,0.1563,0.1597,0.1597,0.1633,0.1608,0,0,0,0,0,0,0,0,0,0,0.1575,0.1566,0.1547,0.1548,0.1563,0.1597,0.1597,0.1607,0.1609,0.1617,0,0.1624,0,0.1633,0.1636,0.1636,0,0,0,0.1558,0.1564,0.1573,0.1548,0.1564,0.1597,0.158,0.1608,0.1611,0.162,0.1625,0.1626,0.1634,0.1636,0.1637,0.1681,0.1681,0,0,0.1556,0.1553,0.1571,0.1575,0.1576,0.1579,0.1582,0.161,0.1615,0.1625,0.1627,0.1635,0.1637,0.1637,0.1681,0.1681,0,0,0,0.1554,0.1552,0.156,0.1573,0.1582,0.158,0.1583,0.1613,0.1616,0.1628,0.1635,0.1637,0.1637,0.168,0.1681,0.1714,0,0,0,0.1553,0.1551,0.1559,0.1558,0.1582,0.16,0.1585,0.1614,0.1618,0.1635,0.1637,0.1638,0.168,0.1681,0.1713,0.17,0,0,0,0.1545,0.155,0.1555,0.1558,0.1575,0.16,0.1604,0.1615,0.1623,0.1636,0.1638,0.168,0.168,0.1711,0.1698,0.1733,0,0,0,0.1539,0.154,0.1555,0.1559,0.1575,0.159,0.1604,0.1622,0.1634,0.1637,0.168,0.1681,0.1711,0.1698,0.1732,0.1679,0.168,0,0,0.1533,0.1539,0.154,0.1554,0.1569,0.1585,0.1615,0.164,0.1644,0.1669,0.167,0.1713,0.1698,0.1733,0.1705,0.1705,0,0,0,0.1533,0.1538,0.1543,0.1559,0.1573,0.1607,0.1635,0.1653,0.1689,0.1655,0.1713,0.1702,0.1723,0.1689,0.1689,0.1683,0.1683,0.1683,0.1683,0.152,0.1532,0.1535,0.1559,0.1579,0.1629,0.1656,0.1689,0.17,0.1726,0.173,0.1775,0.1739,0.1739,0.1746,0.1746,0.1746,0.1746,0.1746,0.1499,0.1495,0.1527,0.1534,0.1581,0.1617,0.1688,0.1718,0.1769,0.176,0.1781,0.1726,0.1741,0.1749,0.1748,0.1748,0.1748,0.1748,0.1747,0.1472,0.1472,0.1483,0.1507,0.1553,0.1618,0.1674,0.1736,0.1779,0.1802,0.178,0.1778,0.1792,0.183,0.183,0.183,0.183,0.183,0.183,0.1433,0.1445,0.1451,0.1485,0.1509,0.1573,0.1672,0.1715,0.1772,0.179,0.179,0.1803,0.1801,0.1796,0.1832,0.1832,0.1832,0.1831,0.1831,0.1401,0.1414,0.1414,0.143,0.1476,0.1487,0.16,0.1672,0.1738,0.175,0.1792,0.1792,0.1774,0.1772,0.1766,0.1793,0.1793,0.1793,0.1793,0.1381,0.1387,0.1378,0.1383,0.1406,0.1444,0.1439,0.1493,0.1606,0.1631,0.1638,0.1599,0.1605,0.1574,0.1577,0.1566,0.1541,0.154,0.154,0.1368,0.1367,0.1345,0.1344,0.1358,0.1366,0.1303,0.1243,0.1335,0.1527,0.1565,0.1781,0.1742,0.1744,0.171,0.171,0.1698,0,0]},{"header":{"parameterUnit":"m.s-1","parameterCategory":2,"la1":30.2992,"la2":30.254,"lo1":-89.0895,"lo2":-89.0443,"dy":0.0025,"dx":0.0025,"nx":19,"ny":19,"refTime":"2026-03-08T21:00:00:Z","depth":"2","parameterNumber":3,"parameterNumberName":"V-component_of_CURRENTS"},"data":[0,0,0,0.0278,0.0277,0.0252,0.0252,0.0206,0.0205,0,0,0,0,0,0,0,0,0,0,0,0.0287,0.0286,0.0278,0.0277,0.0252,0.0252,0.0206,0.0205,0,0,0,0,0,0,0,0,0,0,0,0.0287,0.0286,0.0286,0.0277,0.0252,0.0252,0.0206,0.0227,0,0,0,0,0,0,0,0,0,0,0.0253,0.0268,0.0286,0.0286,0.0277,0.0252,0.0252,0.0228,0.0226,0.0216,0,0.0216,0,0.0212,0.0203,0.0203,0,0,0,0.0271,0.027,0.0262,0.0286,0.0277,0.0252,0.0262,0.0227,0.0224,0.0212,0.0215,0.0214,0.0211,0.0202,0.0202,0.0199,0.02,0,0,0.0272,0.0281,0.0264,0.026,0.0276,0.0262,0.0261,0.0225,0.0225,0.0215,0.0213,0.0211,0.0202,0.0202,0.0199,0.02,0,0,0,0.0281,0.0282,0.0275,0.0262,0.026,0.0262,0.026,0.0227,0.0224,0.0212,0.021,0.0202,0.0201,0.0199,0.0199,0.0255,0,0,0,0.0281,0.0288,0.0276,0.0281,0.0261,0.0246,0.0263,0.0226,0.0222,0.021,0.0202,0.0201,0.0199,0.0199,0.0253,0.0285,0,0,0,0.0287,0.0288,0.0287,0.0281,0.0273,0.0246,0.0241,0.0225,0.0221,0.0203,0.0201,0.0198,0.0199,0.0251,0.0282,0.031,0,0,0,0.0294,0.0304,0.0287,0.0299,0.0273,0.0275,0.0241,0.0233,0.0221,0.0202,0.0199,0.0199,0.025,0.0279,0.0308,0.0352,0.0366,0,0,0.0313,0.0307,0.0315,0.0299,0.0312,0.0278,0.0295,0.0259,0.0227,0.0207,0.0207,0.0254,0.0281,0.031,0.039,0.0403,0,0,0,0.0325,0.0331,0.0332,0.0335,0.0327,0.0331,0.0295,0.0282,0.0263,0.0224,0.0252,0.0267,0.0283,0.0305,0.0315,0.0202,0.0202,0.0202,0.0202,0.0353,0.0353,0.0373,0.0374,0.0376,0.0364,0.0363,0.0339,0.0299,0.03,0.0311,0.037,0.0393,0.0401,0.0304,0.0304,0.0305,0.0305,0.0305,0.0392,0.0409,0.0411,0.0433,0.0433,0.0446,0.0431,0.0409,0.0403,0.0361,0.0374,0.0361,0.0416,0.0309,0.0308,0.0308,0.0307,0.0307,0.0307,0.0416,0.0428,0.0439,0.0474,0.0507,0.0507,0.0547,0.0513,0.0464,0.0473,0.0483,0.0482,0.0407,0.0476,0.0477,0.0477,0.0477,0.0478,0.0478,0.044,0.0453,0.049,0.0525,0.0559,0.0608,0.0613,0.0616,0.0595,0.0555,0.0554,0.0427,0.0422,0.0416,0.0482,0.0481,0.0481,0.048,0.048,0.0476,0.0484,0.0539,0.0577,0.0664,0.0743,0.0742,0.0759,0.0735,0.0738,0.0596,0.0591,0.0578,0.0569,0.0566,0.0667,0.0667,0.0667,0.0667,0.0501,0.0509,0.0591,0.0662,0.0749,0.081,0.0896,0.0879,0.0799,0.0725,0.0723,0.0692,0.0684,0.0673,0.0661,0.0659,0.0784,0.0784,0.0784,0.0532,0.0553,0.0617,0.0686,0.0791,0.0886,0.0969,0.0942,0.0806,0.0786,0.0714,0.0681,0.0626,0.0617,0.0588,0.0575,0.0567,0,0]}],[{"header":{"parameterUnit":"m.s-1","parameterCategory":2,"la1":30.2992,"la2":30.254,"lo1":-89.0895,"lo2":-89.0443,"dy":0.0025,"dx":0.0025,"nx":19,"ny":19,"refTime":"2026-03-08T21:00:00:Z","depth":"4","parameterNumber":2,"parameterNumberName":"U-component_of_CURRENTS"},"data":[0,0,0,0.1046,0.1047,0.1123,0.1123,0.1196,0.1197,0,0,0,0,0,0,0,0,0,0,0,0.1027,0.1028,0.1046,0.1048,0.1123,0.1123,0.1196,0.1197,0,0,0,0,0,0,0,0,0,0,0,0.1027,0.1027,0.1028,0.1048,0.1123,0.1123,0.1196,0.1145,0,0,0,0,0,0,0,0,0,0,0.1075,0.1068,0.1027,0.1028,0.1048,0.1123,0.1124,0.1143,0.1148,0.1154,0,0.1173,0,0.1182,0.1201,0.1201,0,0,0,0.105,0.1064,0.1075,0.1029,0.1049,0.1123,0.109,0.1146,0.1152,0.1161,0.1174,0.1177,0.1184,0.1201,0.1201,0.1274,0.1274,0,0,0.1046,0.1048,0.1071,0.1079,0.1078,0.1087,0.1092,0.115,0.1165,0.1174,0.1179,0.1185,0.1201,0.1202,0.1274,0.1274,0,0,0,0.1032,0.1045,0.1056,0.1076,0.109,0.1089,0.1095,0.1163,0.1164,0.1179,0.1186,0.1202,0.1203,0.1273,0.1274,0.1314,0,0,0,0.103,0.1037,0.1054,0.1057,0.1089,0.1132,0.1106,0.1161,0.1167,0.1185,0.1202,0.1203,0.1273,0.1274,0.1312,0.1305,0,0,0,0.1022,0.1036,0.1046,0.1057,0.1087,0.1131,0.1137,0.1162,0.117,0.1201,0.1203,0.1273,0.1274,0.131,0.1303,0.1338,0,0,0,0.1019,0.1031,0.1046,0.1066,0.1086,0.1122,0.1137,0.1179,0.1208,0.1202,0.1273,0.1274,0.131,0.1302,0.1337,0.1163,0,0,0,0.1024,0.1032,0.1041,0.1055,0.1085,0.1111,0.1162,0.121,0.122,0.1252,0.1254,0.1312,0.1303,0.1338,0.1212,0,0,0,0,0.1035,0.1044,0.1055,0.1083,0.111,0.1157,0.1203,0.1229,0.1285,0.1241,0.1318,0.131,0.1331,0.1225,0.1278,0.1278,0.1278,0.1278,0.1277,0.1033,0.1048,0.1067,0.1097,0.1132,0.12,0.1241,0.1287,0.1303,0.1339,0.1348,0.1404,0.1294,0.1366,0.1366,0.1366,0.1366,0.1366,0.1366,0.1022,0.1024,0.107,0.1096,0.1155,0.1211,0.129,0.1328,0.1394,0.1387,0.1408,0.128,0.137,0.137,0.1369,0.1369,0.1368,0.1368,0.1368,0.0999,0.1001,0.1034,0.1084,0.1152,0.1228,0.1291,0.1364,0.1414,0.1443,0.1346,0.1429,0.142,0.1473,0.1473,0.1473,0.1473,0.1473,0.1473,0.0953,0.0983,0.1014,0.1074,0.1116,0.1192,0.1303,0.134,0.1412,0.1355,0.1461,0.1439,0.1436,0.1426,0.1475,0.1475,0.1475,0.1475,0.1474,0.0908,0.0944,0.0973,0.1013,0.1089,0.1123,0.1245,0.127,0.1304,0.1287,0.1311,0.1318,0.1285,0.1285,0.1268,0.1273,0.1271,0.1269,0,0.0881,0.0898,0.0936,0.097,0.0997,0.1074,0.1066,0.1123,0.1182,0.1143,0.1316,0.1343,0.1346,0.1308,0.1305,0.1284,0,0,0,0.0857,0.0874,0.0881,0.0923,0.0941,0.0972,0.1054,0.1033,0.1172,0.1142,0.1218,0.1231,0.1377,0.1482,0.1449,0.1444,0.1426,0,0]},{"header":{"parameterUnit":"m.s-1","parameterCategory":2,"la1":30.2992,"la2":30.254,"lo1":-89.0895,"lo2":-89.0443,"dy":0.0025,"dx":0.0025,"nx":19,"ny":19,"refTime":"2026-03-08T21:00:00:Z","depth":"4","parameterNumber":3,"parameterNumberName":"V-component_of_CURRENTS"},"data":[0,0,0,0.0292,0.0292,0.0291,0.0291,0.0266,0.0266,0,0,0,0,0,0,0,0,0,0,0,0.0292,0.0292,0.0292,0.0292,0.0291,0.0291,0.0266,0.0266,0,0,0,0,0,0,0,0,0,0,0,0.0292,0.0292,0.0292,0.0292,0.0291,0.0291,0.0266,0.0271,0,0,0,0,0,0,0,0,0,0,0.0274,0.0281,0.0292,0.0292,0.0292,0.0291,0.0291,0.0272,0.0271,0.0261,0,0.0266,0,0.0268,0.0264,0.0264,0,0,0,0.0286,0.0282,0.0282,0.0292,0.0292,0.0292,0.029,0.0271,0.027,0.026,0.0266,0.0265,0.0267,0.0264,0.0264,0.027,0.027,0,0,0.0286,0.029,0.0282,0.0281,0.0298,0.029,0.029,0.0271,0.0272,0.0266,0.0265,0.0267,0.0264,0.0264,0.027,0.027,0,0,0,0.029,0.029,0.029,0.0282,0.0285,0.029,0.029,0.0273,0.0273,0.0264,0.0266,0.0264,0.0263,0.0269,0.027,0.0311,0,0,0,0.029,0.0293,0.029,0.0292,0.0286,0.0283,0.0293,0.0275,0.0273,0.0267,0.0264,0.0263,0.0269,0.0269,0.0309,0.0333,0,0,0,0.029,0.0293,0.0295,0.0292,0.0295,0.0284,0.0283,0.0274,0.0274,0.0264,0.0263,0.0269,0.0269,0.0308,0.033,0.0345,0,0,0,0.0291,0.0301,0.0295,0.0308,0.0295,0.0306,0.0283,0.0284,0.0279,0.0263,0.0269,0.027,0.0307,0.0328,0.0344,0.0331,0,0,0,0.0304,0.0303,0.0311,0.0306,0.0324,0.0305,0.0326,0.0305,0.0284,0.0271,0.0272,0.031,0.033,0.0345,0.0367,0,0,0,0,0.0316,0.0323,0.0327,0.0337,0.0339,0.035,0.0331,0.0325,0.0316,0.0285,0.0311,0.0322,0.033,0.0318,0.0273,0.0272,0.0272,0.0272,0.0272,0.0332,0.0338,0.0358,0.0368,0.0376,0.0378,0.0382,0.037,0.0344,0.0348,0.0356,0.0398,0.0386,0.0353,0.0353,0.0353,0.0353,0.0353,0.0354,0.0359,0.0374,0.0387,0.0411,0.0423,0.0441,0.0436,0.0423,0.0422,0.0395,0.0401,0.0363,0.0358,0.0357,0.0356,0.0356,0.0355,0.0355,0.0355,0.0372,0.0382,0.0401,0.0441,0.0478,0.049,0.052,0.0503,0.0467,0.0472,0.0449,0.0425,0.0421,0.0473,0.0473,0.0473,0.0474,0.0474,0.0474,0.0378,0.0397,0.0434,0.0476,0.0513,0.0557,0.0572,0.0567,0.0536,0.05,0.0487,0.0438,0.0434,0.0428,0.0477,0.0476,0.0476,0.0476,0.0475,0.0391,0.0407,0.0457,0.0496,0.0579,0.061,0.063,0.0603,0.0594,0.0565,0.0506,0.0504,0.0487,0.0482,0.0476,0.0542,0.0542,0.0542,0,0.04,0.0411,0.0482,0.0545,0.0609,0.0642,0.0642,0.0633,0.058,0.0565,0.0588,0.0523,0.052,0.0501,0.0497,0.0491,0,0,0,0.0411,0.0432,0.0481,0.0548,0.0623,0.0634,0.0642,0.062,0.059,0.0576,0.0543,0.0543,0.053,0.0485,0.0453,0.0448,0.0437,0,0]}]]